STARLINK-31512, 59500

Orbit data source: Space-Track

STARLINK-31512, 59500 is a payload satellite owned by SpaceX/Seattle (US) in LEO that was launched on Sat, 13 Apr 2024 UTC via an FALCON 9 launch vehicle from the Air Force Eastern Test Range (AFETR). Payload-class satellites include a variety of spacecraft equipped with specific instruments for various scientific and technological missions. These include communications satellites like Starlink; space stations such as the ISS; scientific satellites like the Hubble; Earth observation satellites from companies like Planet Labs, Umbra, and HawkEye 360; GPS; miniature CubeSats for education and research; and military/defense satellites.

Loading next visibility...
Identifier
59500, 2024-071S
Orbit
LEO
Country
Flag of USUS
Related business
Manufacturer
SpaceX/Seattle
Mission
Operational Commercial Communications
Bus & Motor
STARLINK V2M, Unknown motor
Mass
730 kg wet, ~700 kg dry
Launch date (UTC)
2024-04-13 (2 years ago)
Launch vehicle
FALCON 9
Launch site
Air Force Eastern Test Range (AFETR)
Object type
Payload
Rocket body
Debris
Shape & HBR
Box + 2 Pan, 17.7 m
Radar Cross Section
33.884 m², Large (>1 m²)

Expand to show TLE details & history
Last TLE update: 2 days ago

TLE from 2 days ago
0 STARLINK-31512
1 59500U 24071S   26171.16607003  .00000980  00000-0  45138-4 0  9995
2 59500  43.0011  80.8617 0000957 263.5747  96.4995 15.27582987124334
Epoch: 2026-06-20T03:59Z
TLE epoch observation values (Epoch: 2026-06-20T03:59:08.450Z)
Latitude
-0.00007°
Longitude
112.69182°
Altitude
482.89 km
Speed
7.626 km/s
True Right ascension
05h 23m 26s
True Declination
0° 00' 00"
Sunlit
Object was in daylight at epoch
Visualization orbit readout
Latitude
Unknown
Longitude
Unknown
Altitude
Unknown
Speed
Unknown
Apparent Right ascension
Unknown
Apparent Declination
Unknown
Sunlit
N/A
Visualization observer readout
Local Sidereal Time
00:39:35
Azimuth
Unknown
Elevation
Unknown
Doppler factor
Unknown
Orbital elements
Apogee altitude
485.642 km
Perigee altitude
484.328 km
Semi-major axis
6,863.122 km
Eccentricity
0.0001
Inclination
43.0011°
RAAN
80.8617°
Arg. of periapsis
263.5747°
True anomaly
96.5104°
Mean anomaly
96.4995°
Eccentric anomaly
96.50495°
Mean motion
3.81734 °/min
Orbital period
94.31 mins
BSTAR
0.000045138
Loading maneuver chart data...
Computing Atmospheric mass density...
Loading historical data...
Loading historical data...
Loading historical data...
Loading historical data...
Loading historical data...
Loading historical data...
Loading historical data...

Documentation

Showing up to 5 results
|